カタログに戻る

ARIANE 42P DEB

運用中LEO
NORAD 44508·DEBRIS·🇫🇷 France

打ち上げ Aug 10, 1992 から Guiana Space Centre

Loading…

次のパス (今後24時間)

TLE

最新Source: Space-Track

元期: Sep 13, 2026, 19:44 UTC

1 44508U 92052F   26256.82222994  .00001253  00000-0  46798-2 0  9995
2 44508  66.0215 195.4335 0383409 242.4203 113.7379 12.73460053114454

AllMySatでARIANE 42P DEBをリアルタイム追跡

Download on the App Store